Weather History for Clearfield, PA

Change the Weather History Date:

Sunday, January 19, 2014

  Actual Average (KDUJ) Record (KDUJ)
Temperature  
Mean Temperature 19 °F 23 °F  
Max Temperature 28 °F 31 °F 54 °F (1996)
Min Temperature 10 °F 16 °F -26 °F (1994)
Degree Days  
Heating Degree Days 46 42  
Month to date heating degree days 788  
Since 1 July heating degree days 3450  
Cooling Degree Days 0 0  
Month to date cooling degree days 0  
Year to date cooling degree days 0  
Moisture  
Dew Point 13 °F    
Average Humidity 83    
Maximum Humidity 92    
Minimum Humidity 64    
Precipitation  
Precipitation 0.02 in 0.10 in 0.59 in (1987)
Month to date precipitation 1.97  
Sea Level Pressure  
Sea Level Pressure 29.73 in    
Wind  
Wind Speed 5 mph (SW)    
Max Wind Speed 20 mph    
Max Gust Speed 34 mph    
Visibility 5 miles    
Events Snow    
T = Trace of Precipitation, MM = Missing Value Source: NWS Daily Summary

Daily Weather History Graph

Daily Weather History Graph

Search for Another Location

Airport:

Trip Planner

Search our weather history database for the weather conditions in past years. The results will help you decide how hot, cold, wet, or windy it might be!

Date:

Astronomy

Jan. 19, 2014 Rise Set
Actual Time 7:34 AM EST 5:14 PM EST
Civil Twilight 7:04 AM EST 5:44 PM EST
Nautical Twilight 6:30 AM EST 6:18 PM EST
Astronomical Twilight 5:57 AM EST 6:51 PM EST
Moon 8:53 PM EST (1/19) 9:01 AM EST (1/19)
Length of Visible Light 10h 40m
Length of Day
9h 40m
Waning Gibbous, 89% of the Moon is Illuminated
Jan 19
Waning Gibbous
Jan 24
Last Quarter
Jan 30
New
Feb 6
First Quarter
Feb 14
Full

Hourly Weather History & Observations

Time (EST) Temp. Windchill Dew Point Humidity Pressure Visibility Wind Dir Wind Speed Gust Speed Precip Events Conditions
12:54 AM 12.0 °F 4.1 °F 8.1 °F 84% 29.88 in 6.0 mi SW 4.6 mph - 0.00 in Snow Light Snow
1:21 AM 12.0 °F 5.9 °F 8.1 °F 84% 29.79 in 2.5 mi SSW 3.5 mph - 0.00 in Snow Light Snow
1:32 AM 12.0 °F 4.1 °F 9.0 °F 88% 29.78 in 2.0 mi SW 4.6 mph - 0.00 in Snow Light Snow
1:43 AM 12.0 °F 5.9 °F 9.0 °F 88% 29.78 in 1.8 mi South 3.5 mph - 0.00 in Snow Light Snow
1:54 AM 12.0 °F - 9.0 °F 88% 29.86 in 1.2 mi Calm Calm - 0.00 in Snow Light Snow
2:11 AM 12.0 °F - 9.0 °F 88% 29.77 in 2.5 mi Calm Calm - 0.01 in Snow Light Snow
2:42 AM 12.0 °F - 10.0 °F 92% 29.76 in 3.0 mi Calm Calm - 0.01 in Snow Light Snow
2:54 AM 10.9 °F - 9.0 °F 92% 29.85 in 6.0 mi Calm Calm - 0.01 in   Overcast
3:54 AM 10.9 °F - 9.0 °F 92% 29.83 in 4.0 mi Calm Calm - 0.00 in Snow Light Snow
4:54 AM 12.0 °F - 9.0 °F 88% 29.81 in 2.5 mi Calm Calm - 0.00 in Snow Light Snow
5:01 AM 12.0 °F - 10.0 °F 92% 29.72 in 4.0 mi Calm Calm - 0.00 in Snow Light Snow
5:16 AM 12.0 °F - 10.0 °F 92% 29.71 in 2.5 mi Calm Calm - 0.00 in Snow Light Snow
5:30 AM 12.0 °F - 10.0 °F 92% 29.70 in 1.8 mi Calm Calm - 0.00 in Snow Light Snow
5:38 AM 12.0 °F - 10.0 °F 92% 29.70 in 2.0 mi Calm Calm - 0.00 in Snow Light Snow
5:54 AM 12.0 °F 5.9 °F 10.0 °F 92% 29.78 in 1.8 mi North 3.5 mph - 0.00 in Snow Light Snow
6:49 AM 12.2 °F 6.1 °F 10.4 °F 92% 29.69 in 2.5 mi North 3.5 mph - 0.01 in Snow Light Snow
6:54 AM 12.9 °F - 10.0 °F 88% 29.78 in 2.5 mi Calm Calm - 0.01 in Snow Light Snow
7:09 AM 12.9 °F - 10.0 °F 88% 29.69 in 3.0 mi Calm Calm - 0.00 in Snow Light Snow
7:19 AM 12.9 °F - 10.0 °F 88% 29.69 in 2.5 mi Calm Calm - 0.00 in Snow Light Snow
7:34 AM 12.9 °F - 10.9 °F 92% 29.70 in 3.0 mi Calm Calm - 0.00 in Snow Light Snow
7:40 AM 12.9 °F - 10.9 °F 92% 29.69 in 1.8 mi Calm Calm - 0.00 in Snow Light Snow
7:54 AM 12.9 °F - 10.9 °F 92% 29.78 in 1.5 mi Calm Calm - 0.00 in Snow Light Snow
8:24 AM 12.9 °F - 10.0 °F 88% 29.70 in 3.0 mi Calm Calm - 0.00 in Snow Light Snow
8:34 AM 14.0 °F 8.2 °F 10.9 °F 88% 29.70 in 4.0 mi South 3.5 mph - 0.00 in Snow Light Snow
8:45 AM 14.0 °F 6.5 °F 10.9 °F 88% 29.70 in 2.5 mi South 4.6 mph - 0.00 in Snow Light Snow
8:54 AM 14.0 °F 6.5 °F 12.0 °F 92% 29.78 in 2.5 mi South 4.6 mph - 0.00 in Snow Light Snow
9:05 AM 14.0 °F 5.1 °F 12.0 °F 92% 29.70 in 3.0 mi South 5.8 mph - 0.00 in Snow Light Snow
9:34 AM 15.1 °F 5.2 °F 12.0 °F 88% 29.70 in 2.5 mi SW 6.9 mph - 0.00 in Snow Light Snow
9:42 AM 15.1 °F 6.4 °F 12.0 °F 88% 29.70 in 4.0 mi SW 5.8 mph - 0.00 in Snow Light Snow
9:54 AM 16.0 °F 7.4 °F 12.9 °F 88% 29.78 in 3.0 mi SSW 5.8 mph - 0.00 in   Overcast
10:54 AM 19.9 °F 11.1 °F 16.0 °F 85% 29.77 in 8.0 mi SW 6.9 mph - 0.00 in   Overcast
11:34 AM 21.9 °F 9.8 °F 17.1 °F 82% 29.68 in 10.0 mi WSW 12.7 mph 18.4 mph 0.00 in   Overcast
11:54 AM 21.9 °F 10.4 °F 17.1 °F 82% 29.74 in 10.0 mi WSW 11.5 mph - 0.00 in   Overcast
12:54 PM 24.1 °F 10.6 °F 18.0 °F 77% 29.71 in 10.0 mi WSW 17.3 mph 34.5 mph 0.00 in   Overcast
1:54 PM 25.0 °F 10.9 °F 18.0 °F 75% 29.70 in 10.0 mi WSW 19.6 mph 29.9 mph N/A   Overcast
2:54 PM 27.0 °F 14.7 °F 19.0 °F 72% 29.69 in 10.0 mi SW 16.1 mph 21.9 mph N/A   Overcast
3:52 PM 28.4 °F 16.6 °F 17.6 °F 64% 29.62 in 10.0 mi SW 16.1 mph 28.8 mph 0.00 in   Overcast
3:54 PM 28.0 °F 16.5 °F 18.0 °F 66% 29.69 in 10.0 mi SW 15.0 mph 26.5 mph 0.00 in   Overcast
4:54 PM 28.0 °F 16.5 °F 19.0 °F 69% 29.70 in 10.0 mi SW 15.0 mph 24.2 mph 0.00 in   Overcast
5:33 PM 27.0 °F 15.6 °F 19.0 °F 72% 29.62 in 10.0 mi SW 13.8 mph 21.9 mph N/A   Mostly Cloudy
5:54 PM 27.0 °F 15.6 °F 19.0 °F 72% 29.70 in 10.0 mi SW 13.8 mph 20.7 mph N/A   Scattered Clouds
6:54 PM 27.0 °F 16.7 °F 18.0 °F 69% 29.71 in 10.0 mi SW 11.5 mph - N/A   Clear
7:54 PM 27.0 °F 18.0 °F 18.0 °F 69% 29.72 in 10.0 mi SW 9.2 mph - N/A   Clear
8:54 PM 27.0 °F 15.6 °F 18.0 °F 69% 29.70 in 10.0 mi SW 13.8 mph 19.6 mph N/A   Clear
9:54 PM 28.0 °F 17.5 °F 19.0 °F 69% 29.69 in 10.0 mi SW 12.7 mph 20.7 mph N/A   Clear
10:54 PM 28.0 °F 18.6 °F 19.0 °F 69% 29.68 in 10.0 mi SW 10.4 mph - N/A   Clear
11:54 PM 28.0 °F 18.6 °F 19.9 °F 72% 29.67 in 10.0 mi WSW 10.4 mph - N/A   Clear